TimeCDT,TemperatureF,Dew PointF,Humidity,Sea Level PressureIn,VisibilityMPH,Wind Direction,Wind SpeedMPH,Gust SpeedMPH,PrecipitationIn,Events,Conditions,WindDirDegrees,DateUTC
12:15 AM,51.8,49.5,92,30.05,10.0,East,8.1,-,N/A,,Overcast,100,2013-10-05 05:15:00
12:35 AM,52.7,50.0,91,30.04,10.0,ESE,9.2,16.1,N/A,,Overcast,110,2013-10-05 05:35:00
12:55 AM,51.8,49.5,92,30.03,10.0,East,9.2,19.6,0.01,Rain,Rain,90,2013-10-05 05:55:00
1:15 AM,52.0,49.6,92,30.03,10.0,ESE,10.4,16.1,N/A,,Light Drizzle,110,2013-10-05 06:15:00
1:35 AM,51.8,49.6,92,30.02,7.0,East,9.2,-,0.01,Rain,Rain,90,2013-10-05 06:35:00
1:55 AM,51.8,49.6,92,30.03,7.0,ESE,5.8,-,0.04,Rain,Rain,110,2013-10-05 06:55:00
2:15 AM,51.8,49.6,92,30.04,10.0,ESE,10.4,-,0.02,Rain,Rain,120,2013-10-05 07:15:00
2:35 AM,51.8,49.6,92,30.03,10.0,ESE,6.9,-,0.02,Rain,Light Rain,110,2013-10-05 07:35:00
2:55 AM,51.8,50.0,94,30.00,10.0,East,10.4,-,0.02,Rain,Light Rain,100,2013-10-05 07:55:00
3:15 AM,52.0,50.0,93,30.00,10.0,ESE,9.2,-,N/A,Rain,Rain,110,2013-10-05 08:15:00
3:35 AM,52.0,50.0,93,29.99,10.0,ESE,8.1,-,0.04,Rain,Rain,110,2013-10-05 08:35:00
3:55 AM,52.5,50.5,93,29.99,7.0,East,10.4,18.4,0.10,Rain,Rain,100,2013-10-05 08:55:00
4:15 AM,52.3,50.4,93,29.98,7.0,East,11.5,19.6,0.05,Rain,Rain,100,2013-10-05 09:15:00
4:35 AM,52.2,50.2,93,29.96,10.0,East,8.1,18.4,0.08,Rain,Rain,100,2013-10-05 09:35:00
4:55 AM,52.7,50.7,93,29.97,10.0,East,8.1,17.3,0.08,Rain,Light Rain,100,2013-10-05 09:55:00
5:15 AM,52.5,50.5,93,29.95,10.0,ENE,9.2,17.3,0.01,Rain,Light Rain,70,2013-10-05 10:15:00
5:35 AM,52.9,50.9,93,29.95,10.0,East,11.5,18.4,0.01,,Overcast,90,2013-10-05 10:35:00
5:55 AM,53.1,50.9,92,29.96,10.0,ESE,9.2,-,0.01,,Overcast,110,2013-10-05 10:55:00
6:15 AM,53.1,50.9,92,29.93,10.0,ESE,12.7,20.7,N/A,,Overcast,110,2013-10-05 11:15:00
6:35 AM,53.1,51.1,93,29.94,10.0,East,8.1,-,N/A,,Overcast,100,2013-10-05 11:35:00
6:55 AM,53.1,51.1,93,29.95,10.0,East,9.2,16.1,N/A,,Overcast,100,2013-10-05 11:55:00
7:15 AM,53.1,51.1,93,29.95,10.0,ESE,10.4,24.2,N/A,,Overcast,110,2013-10-05 12:15:00
7:35 AM,53.1,51.1,93,29.94,10.0,ESE,12.7,18.4,N/A,,Overcast,110,2013-10-05 12:35:00
7:55 AM,53.1,51.1,93,29.94,10.0,ESE,9.2,19.6,N/A,,Overcast,110,2013-10-05 12:55:00
8:15 AM,53.1,51.1,93,29.93,10.0,ESE,10.4,20.7,N/A,,Overcast,110,2013-10-05 13:15:00
8:35 AM,53.1,51.1,93,29.93,10.0,East,5.8,18.4,N/A,,Overcast,100,2013-10-05 13:35:00
8:55 AM,53.1,51.1,93,29.94,10.0,ESE,9.2,17.3,N/A,,Overcast,110,2013-10-05 13:55:00
9:15 AM,54.5,52.3,92,29.94,7.0,ESE,10.4,17.3,N/A,,Overcast,110,2013-10-05 14:15:00
9:35 AM,54.5,52.3,92,29.97,5.0,ESE,8.1,-,N/A,,Overcast,110,2013-10-05 14:35:00
9:55 AM,54.5,52.3,92,29.98,4.0,ESE,4.6,-,N/A,,Overcast,110,2013-10-05 14:55:00
10:15 AM,54.5,52.7,94,29.98,3.0,ESE,8.1,-,0.02,Rain,Light Rain,120,2013-10-05 15:15:00
10:35 AM,54.5,52.7,94,29.96,3.0,ESE,5.8,-,0.05,Rain,Rain,110,2013-10-05 15:35:00
10:55 AM,54.5,52.7,94,29.94,10.0,ESE,10.4,18.4,0.10,Rain-Thunderstorm,Light Thunderstorms and Rain,110,2013-10-05 15:55:00
11:15 AM,54.5,52.3,92,29.93,10.0,ESE,9.2,17.3,N/A,,Light Drizzle,110,2013-10-05 16:15:00
11:35 AM,54.5,52.3,92,29.93,10.0,ESE,8.1,18.4,N/A,Rain,Light Rain,110,2013-10-05 16:35:00
11:55 AM,56.7,54.5,92,29.92,10.0,ESE,10.4,17.3,0.01,Rain,Light Rain,110,2013-10-05 16:55:00
12:15 PM,56.3,54.0,92,29.92,10.0,ESE,6.9,-,N/A,Rain,Light Rain,110,2013-10-05 17:15:00
12:35 PM,56.8,54.5,92,29.92,4.0,ESE,8.1,-,N/A,,Drizzle,110,2013-10-05 17:35:00
12:55 PM,56.8,54.5,92,29.91,10.0,ESE,9.2,-,N/A,,Overcast,110,2013-10-05 17:55:00
1:15 PM,56.8,54.5,92,29.91,10.0,ESE,8.1,-,N/A,Rain,Rain,120,2013-10-05 18:15:00
1:35 PM,56.8,54.7,92,29.90,10.0,East,5.8,-,N/A,,Overcast,90,2013-10-05 18:35:00
1:55 PM,56.8,54.7,92,29.91,10.0,East,3.5,-,N/A,,Overcast,100,2013-10-05 18:55:00
2:15 PM,56.8,54.7,92,29.91,7.0,East,3.5,-,N/A,,Overcast,90,2013-10-05 19:15:00
2:35 PM,56.8,54.9,93,29.90,3.0,ENE,4.6,-,N/A,,Overcast,60,2013-10-05 19:35:00
2:55 PM,56.8,54.9,93,29.89,5.0,ENE,4.6,-,N/A,,Overcast,70,2013-10-05 19:55:00
3:15 PM,56.8,54.9,93,29.89,2.5,East,3.5,-,N/A,,Light Drizzle,100,2013-10-05 20:15:00
3:35 PM,56.8,55.0,94,29.88,1.2,East,6.9,-,N/A,,Drizzle,90,2013-10-05 20:35:00
3:55 PM,56.8,55.0,94,29.86,2.5,East,9.2,-,N/A,,Light Drizzle,80,2013-10-05 20:55:00
4:15 PM,56.8,54.9,93,29.85,7.0,East,8.1,-,N/A,,Overcast,90,2013-10-05 21:15:00
4:35 PM,56.8,54.7,92,29.84,4.0,East,10.4,17.3,N/A,,Overcast,100,2013-10-05 21:35:00
4:55 PM,56.8,54.9,93,29.85,5.0,ESE,9.2,-,N/A,,Overcast,110,2013-10-05 21:55:00
5:15 PM,56.8,54.9,93,29.84,4.0,East,8.1,19.6,N/A,,Overcast,90,2013-10-05 22:15:00
5:35 PM,56.8,54.9,93,29.84,2.0,East,9.2,21.9,N/A,,Overcast,90,2013-10-05 22:35:00
5:55 PM,54.7,52.7,93,29.85,2.5,ESE,10.4,19.6,N/A,,Overcast,110,2013-10-05 22:55:00
6:15 PM,54.5,52.3,92,29.84,4.0,ESE,8.1,20.7,N/A,,Overcast,110,2013-10-05 23:15:00
6:35 PM,54.5,52.3,92,29.84,5.0,ESE,13.8,20.7,N/A,Rain,Light Rain,110,2013-10-05 23:35:00
6:55 PM,54.5,52.3,92,29.82,7.0,ESE,9.2,23.0,N/A,Rain,Light Rain,110,2013-10-05 23:55:00
7:15 PM,54.3,52.3,93,29.81,7.0,ESE,10.4,18.4,N/A,,Overcast,110,2013-10-06 00:15:00
7:35 PM,54.5,52.7,94,29.80,10.0,ESE,12.7,19.6,N/A,,Overcast,110,2013-10-06 00:35:00
7:55 PM,54.0,52.2,94,29.80,7.0,ESE,11.5,17.3,N/A,,Overcast,110,2013-10-06 00:55:00
8:15 PM,53.1,51.3,94,29.79,5.0,ESE,11.5,19.6,N/A,,Overcast,120,2013-10-06 01:15:00
8:35 PM,53.1,51.4,94,29.78,5.0,ESE,11.5,23.0,N/A,Rain,Rain,110,2013-10-06 01:35:00
8:55 PM,53.1,51.4,94,29.78,7.0,ESE,11.5,17.3,0.02,Rain,Light Rain,110,2013-10-06 01:55:00
9:15 PM,53.1,51.4,94,29.76,7.0,East,10.4,-,N/A,Rain,Light Rain,100,2013-10-06 02:15:00
9:35 PM,53.1,51.4,94,29.76,10.0,ESE,9.2,-,0.01,Rain,Light Rain,120,2013-10-06 02:35:00
9:55 PM,53.1,51.4,94,29.76,7.0,ESE,10.4,-,0.03,Rain,Rain,110,2013-10-06 02:55:00
10:15 PM,53.1,51.4,94,29.75,7.0,ESE,10.4,-,0.01,Rain,Light Rain,120,2013-10-06 03:15:00
10:35 PM,54.0,52.2,94,29.75,5.0,ESE,9.2,-,0.12,Rain,Heavy Rain,110,2013-10-06 03:35:00
10:55 PM,54.5,52.7,94,29.74,10.0,ESE,11.5,17.3,0.17,Rain,Light Rain,120,2013-10-06 03:55:00
11:15 PM,54.5,52.7,94,29.73,7.0,ESE,8.1,-,0.10,Rain-Thunderstorm,Light Thunderstorms and Rain,110,2013-10-06 04:15:00
11:35 PM,54.5,52.3,92,29.71,10.0,ESE,6.9,-,0.13,Rain,Rain,110,2013-10-06 04:35:00
11:55 PM,54.5,52.3,92,29.70,7.0,ESE,8.1,-,0.16,Rain,Light Rain,120,2013-10-06 04:55:00